Temperature
6 6 6 6 6 6 6 6 6 5 5 5 5 5 5 5 5 5 5 4 4 4 4 4 4 4 4 4 4 4 4 4 4 5 5 5 5 5 5 4 4 5 5
6 6 6 6 5 5 5 5 5 5 5 5 5 5 5 4 4 4 4 4 4 4 4 4 4 4 4 4 4 4 4 4 4 4 4 4 4 4 4 4 4 4 4
5 5 5 5 5 5 5 5 5 5 5 4 4 4 4 4 4 4 4 4 4 3 3 3 3 3 3 3 3 3 3 3 4 4 4 4 4 4 4 4 4 4 4
5 5 5 5 5 5 5 5 4 4 4 4 4 4 3 3 3 3 3 3 3 3 3 3 3 3 3 3 3 3 3 3 3 3 3 3 3 3 3 3 3 3 4
4 4 4 4 4 4 4 4 4 4 3 3 3 3 3 3 3 3 3 3 3 3 3 3 3 3 3 3 3 3 3 3 3 3 3 3 3 3 3 3 3 3 3
4 4 4 4 4 4 3 3 3 3 3 3 3 3 3 3 3 3 2 3 3 3 3 3 3 2 2 3 3 3 3 3 2 3 3 3 3 3 3 2 2 2 2
3 3 3 3 3 3 3 3 3 3 3 2 2 2 2 2 2 2 2 2 2 2 2 2 2 2 2 2 2 2 2 2 2 2 2 2 2 2 2 2 2 2 2
3 3 3 2 3 3 2 2 2 2 2 2 2 2 2 2 2 2 2 2 2 2 2 2 2 2 2 2 2 2 2 2 2 2 2 2 2 2 2 2 2 2 2
2 2 2 2 2 2 2 2 2 1 1 1 1 1 1 1 1 1 1 1 1 1 1 1 1 1 1 2 1 2 2 2 2 2 2 2 2 2 2 2 2 2 1
1 1 1 1 1 1 1 1 1 1 1 1 1 1 1 1 1 1 1 1 1 1 1 1 1 1 1 1 1 1 1 1 1 1 1 2 2 2 2 2 1 1 1
1 1 1 1 1 1 1 1 0 0 0 0 0 0 0 0 1 1 1 0 0 0 0 0 0 1 1 1 1 1 1 1 1 1 1 1 1 2 1 1 1 1 1
0 0 0 0 0 0 0 -0 -0 -0 -1 -1 -1 -1 -0 -0 0 0 0 0 0 -0 -0 -0 -0 0 0 1 1 1 1 1 1 1 1 1 1 1 1 1 1 1 1
-0 -0 -0 -0 -0 -0 -1 -1 -1 -1 -1 -1 -1 -1 -1 -1 -1 -0 -0 -0 -0 -1 -0 -0 -0 -0 0 0 0 0 0 0 0 0 0 0 1 1 1 1 1 1 1
-1 -1 -1 -1 -1 -1 -1 -1 -2 -2 -2 -2 -2 -2 -2 -1 -1 -1 -1 -1 -1 -1 -1 -1 -1 -0 -0 -0 -0 -0 -0 -0 0 -0 -0 -0 0 0 0 -0 -0 0 0
-1 -1 -2 -2 -2 -2 -2 -2 -2 -2 -2 -2 -2 -2 -2 -2 -2 -1 -1 -1 -1 -1 -1 -1 -1 -1 -1 -1 -1 -1 -1 -0 -0 -1 -0 -0 -0 -0 -0 -0 -0 -0 -1
-2 -2 -2 -2 -2 -2 -3 -2 -2 -2 -2 -2 -2 -2 -2 -2 -2 -1 -1 -1 -1 -1 -1 -1 -1 -1 -1 -1 -1 -1 -1 -1 -1 -1 -1 -1 -1 -1 -1 -1 -1 -1 -1
-3 -3 -3 -3 -3 -3 -3 -3 -3 -3 -2 -2 -2 -2 -2 -2 -2 -2 -2 -2 -2 -1 -1 -1 -1 -1 -1 -1 -1 -1 -1 -1 -1 -1 -1 -1 -1 -1 -1 -1 -1 -1 -1
-3 -3 -3 -3 -4 -4 -4 -4 -4 -4 -3 -3 -2 -2 -2 -2 -2 -2 -2 -2 -2 -2 -2 -1 -1 -1 -1 -1 -1 -1 -1 -1 -1 -1 -1 -1 -1 -1 -1 -2 -2 -2 -2
-4 -4 -4 -4 -4 -4 -4 -4 -4 -4 -4 -4 -3 -3 -3 -3 -2 -2 -2 -2 -2 -2 -2 -2 -1 -1 -1 -2 -2 -2 -2 -1 -1 -1 -1 -1 -1 -1 -2 -2 -2 -2 -2
-4 -4 -4 -4 -4 -4 -4 -4 -4 -4 -4 -4 -4 -4 -3 -3 -3 -3 -2 -2 -2 -2 -2 -2 -2 -2 -2 -2 -2 -2 -2 -2 -2 -2 -2 -2 -2 -2 -2 -2 -2 -2 -3
-4 -4 -4 -4 -4 -4 -4 -5 -5 -5 -4 -4 -4 -4 -4 -4 -4 -3 -3 -3 -3 -3 -3 -2 -2 -2 -2 -2 -2 -2 -2 -2 -2 -2 -2 -2 -2 -2 -2 -2 -2 -2 -3
-5 -5 -5 -5 -5 -5 -5 -5 -5 -5 -5 -5 -5 -4 -4 -4 -4 -4 -4 -4 -3 -3 -3 -3 -3 -2 -2 -2 -2 -2 -2 -2 -2 -2 -2 -2 -2 -2 -2 -2 -3 -3 -3
-5 -5 -5 -5 -5 -5 -5 -5 -5 -5 -5 -5 -5 -5 -4 -4 -4 -4 -4 -4 -4 -4 -3 -3 -3 -3 -2 -2 -2 -2 -2 -2 -2 -2 -2 -2 -2 -2 -3 -3 -3 -3 -3
-6 -5 -5 -5 -6 -6 -6 -5 -5 -5 -5 -5 -5 -5 -5 -4 -4 -4 -4 -4 -4 -4 -4 -3 -3 -3 -3 -3 -2 -2 -2 -2 -2 -2 -2 -2 -2 -3 -3 -3 -3 -3 -3
-6 -6 -6 -6 -6 -6 -6 -6 -6 -5 -5 -5 -5 -5 -5 -5 -5 -4 -4 -4 -4 -4 -4 -4 -3 -3 -3 -3 -3 -3 -2 -2 -2 -2 -2 -2 -2 -3 -3 -3 -3 -3 -4
-6 -6 -6 -6 -6 -6 -6 -6 -6 -6 -6 -6 -5 -5 -5 -5 -5 -5 -5 -4 -4 -4 -4 -4 -4 -3 -3 -3 -3 -3 -3 -3 -2 -2 -3 -3 -3 -3 -3 -3 -3 -4 -4
Wind_Speed
3 3 4 4 5 5 5 6 7 7 8 8 9 9 10 10 10 10 10 11 11 10 10 11 11 11 9 9 9 9 9 9 10 9 7 7 9 9 8 9 9 9 8
3 3 4 4 5 5 6 6 7 8 8 8 8 9 10 10 10 10 10 10 10 10 10 10 11 9 10 9 8 9 9 9 9 10 8 7 9 8 8 9 8 7 8
3 3 4 4 5 5 6 6 6 7 7 7 7 8 9 9 9 9 10 10 10 10 10 11 10 10 11 9 9 9 8 7 7 8 8 7 7 6 7 7 8 7 7
3 3 4 5 5 6 6 6 6 6 6 7 7 8 8 9 9 9 9 9 9 9 9 10 10 10 10 10 9 10 8 8 7 7 7 7 6 6 6 6 6 6 6
3 4 5 5 5 5 5 6 6 6 6 6 7 7 8 8 7 8 9 9 9 9 9 9 10 10 11 10 8 8 8 7 6 6 7 7 6 5 5 5 6 5 6
4 4 4 5 5 5 5 5 6 6 6 6 7 7 7 7 9 10 10 8 8 9 9 9 8 9 10 11 11 10 9 8 8 7 6 7 8 7 6 5 5 5 5
4 4 4 4 5 5 5 5 5 6 5 6 7 7 7 8 9 10 10 8 8 7 8 8 7 6 8 8 8 9 9 10 10 9 8 9 8 7 6 6 6 5 5
4 4 4 4 5 5 5 5 5 5 5 6 7 7 7 8 8 8 9 7 7 7 7 7 7 7 7 7 7 6 7 7 7 6 7 7 6 6 6 6 5 4 4
4 5 5 5 5 5 5 5 5 5 6 6 6 6 7 7 7 7 8 5 6 7 7 7 6 6 6 6 6 6 5 5 4 5 6 7 7 7 6 4 3 2 2
5 6 6 5 5 5 5 6 5 5 5 5 6 6 7 7 8 8 7 5 5 6 6 6 6 6 6 6 5 5 4 4 4 3 4 4 3 3 4 4 4 3 2
6 6 6 5 5 5 5 5 5 5 5 5 5 6 6 6 7 7 7 4 5 5 5 5 4 5 5 5 6 4 4 4 3 3 3 3 2 1 0 0 1 2 2
5 5 6 5 5 4 4 4 4 4 5 5 5 6 5 5 6 6 6 6 5 5 5 4 3 3 4 5 3 2 2 3 2 2 1 2 1 0 1 2 2 2 2
5 5 5 5 5 4 4 4 4 4 4 5 5 5 5 5 4 5 5 5 6 4 3 3 3 4 4 3 2 3 3 2 1 1 1 1 1 1 1 2 3 4 5
5 5 5 5 5 4 4 3 4 4 4 5 5 5 5 5 4 4 3 3 3 3 3 3 2 2 2 2 3 2 2 1 0 0 0 0 1 2 2 2 2 2 4
6 5 5 5 5 4 4 4 4 4 5 5 5 5 5 6 6 6 5 4 3 3 3 2 2 1 1 1 2 2 2 1 1 1 1 1 1 2 2 2 2 3 3
5 5 4 4 4 4 4 4 4 5 6 7 7 7 6 6 8 7 6 5 5 4 2 2 2 1 1 1 1 2 2 1 1 1 1 1 1 2 2 3 3 3 3
5 5 4 4 4 4 4 4 5 5 5 6 6 6 6 7 7 6 4 4 3 2 1 1 1 1 1 1 1 1 2 1 1 1 1 1 2 2 3 3 3 3 3
6 5 5 4 3 4 4 4 4 5 5 5 5 6 6 6 6 5 3 2 1 1 1 1 1 1 1 1 1 1 1 1 1 1 1 2 2 3 3 3 3 3 3
5 4 3 3 3 3 4 4 4 4 4 5 5 5 6 5 4 4 2 1 1 1 1 2 2 1 1 1 1 1 1 1 1 1 2 2 2 3 3 3 3 4 4
4 4 4 3 3 3 3 3 3 3 4 4 4 4 4 3 3 3 3 2 2 2 2 2 2 1 1 1 0 0 0 1 1 1 1 2 2 3 3 3 3 3 3
3 3 4 3 3 3 3 3 3 3 3 3 3 4 4 3 2 3 3 2 2 2 2 2 2 2 1 1 0 0 1 0 1 1 2 2 3 3 3 3 3 3 3
3 3 3 3 3 3 3 3 3 3 3 3 3 3 4 3 2 2 2 2 2 2 2 2 2 2 2 1 0 0 1 1 1 1 2 2 3 3 3 3 3 3 4
2 2 2 2 2 3 3 3 3 2 2 3 3 3 2 2 2 2 2 2 2 2 2 2 2 2 2 1 1 0 1 1 1 2 2 3 3 3 3 4 4 4 4
2 2 2 2 2 2 2 2 2 2 2 2 2 2 2 2 2 2 2 2 2 2 2 2 2 2 2 2 1 1 0 1 1 1 2 3 4 4 4 4 4 4 4
2 2 2 2 2 2 2 2 2 2 2 2 2 2 2 2 2 2 2 2 2 2 3 3 2 2 2 2 1 1 2 3 2 2 2 4 5 4 4 4 4 4 4
2 2 2 2 2 2 2 2 2 2 2 2 2 2 2 2 2 2 2 2 2 3 3 3 3 3 3 2 3 4 4 5 4 4 3 4 5 5 5 5 5 4 4
Wind_Direction
255 257 260 267 267 266 267 268 269 271 272 272 272 272 270 268 265 262 262 264 261 261 259 257 255 253 250 248 248 249 251 251 263 275 276 278 274 272 277 277 277 278 273
262 264 268 275 277 274 274 275 276 276 276 276 275 274 274 274 271 264 263 264 263 263 262 259 256 254 252 250 247 249 251 249 257 270 277 277 275 272 274 275 279 281 281
274 275 278 282 284 284 286 288 286 283 284 281 277 277 278 278 276 272 267 266 266 265 266 260 257 253 253 253 249 249 252 253 255 261 272 277 276 272 275 276 279 284 285
293 286 284 288 290 292 292 293 291 288 286 283 282 282 283 283 280 277 273 269 268 267 267 261 255 253 254 254 249 247 248 251 253 257 266 272 274 273 273 275 283 288 289
298 290 287 290 292 292 289 291 292 289 284 285 286 287 287 284 281 281 279 271 268 269 268 263 256 254 255 255 253 250 246 250 252 257 263 268 269 269 269 276 277 289 296
296 291 293 296 299 294 293 295 294 290 287 288 288 287 288 287 290 288 282 274 271 271 273 272 264 257 255 255 256 255 249 247 252 255 259 258 261 266 270 267 274 280 289
297 295 295 298 298 295 296 299 297 294 291 289 287 286 288 291 294 289 286 280 275 275 276 278 275 267 262 259 259 258 255 251 251 254 256 258 260 261 260 260 258 264 278
304 303 304 301 297 298 300 301 301 298 291 288 290 292 292 293 300 301 297 288 282 280 277 277 274 273 266 265 267 269 269 268 261 260 258 261 259 258 253 252 254 271 288
316 312 307 300 294 296 298 300 304 304 298 295 295 293 291 294 302 303 300 291 286 287 284 280 276 276 272 264 265 269 272 281 273 263 268 266 259 251 247 236 235 234 272
321 314 307 300 293 292 296 300 301 300 300 300 296 292 290 292 299 301 297 283 285 288 288 282 277 274 277 265 265 265 266 282 288 296 293 285 259 239 231 226 224 221 234
317 313 309 306 301 298 301 301 302 302 301 301 302 302 300 298 301 299 296 282 282 288 288 287 290 298 297 286 273 265 260 284 291 289 297 307 305 307 303 294 247 201 199
315 309 309 310 309 304 303 306 306 304 302 302 303 307 307 305 303 300 298 288 288 282 282 284 294 318 320 319 299 285 291 289 281 280 299 307 302 349 39 49 51 47 42
316 311 311 314 312 308 306 308 310 308 302 303 305 307 311 314 315 309 304 299 300 286 277 289 298 308 310 311 340 337 320 291 272 259 261 301 336 87 82 76 69 63 50
314 315 316 315 314 314 313 307 305 304 301 301 303 305 308 309 312 312 308 308 307 295 288 295 302 316 304 318 337 342 336 337 97 244 113 44 56 79 78 76 78 73 64
312 311 311 311 308 311 312 313 307 304 300 298 297 297 300 300 308 314 307 298 292 288 291 293 299 313 330 342 345 350 359 11 39 45 86 82 77 80 69 62 64 72 75
306 306 306 305 306 307 312 318 326 309 316 311 305 298 299 298 306 307 307 304 299 291 284 279 289 300 313 324 330 342 352 359 13 37 74 86 93 95 85 73 76 86 86
297 297 299 299 300 298 302 305 314 325 327 324 319 315 308 311 313 305 305 310 308 304 283 286 289 293 302 307 316 332 340 343 4 57 88 95 97 99 100 96 90 86 80
299 295 295 296 300 300 299 302 305 311 319 324 332 331 328 326 326 321 307 319 330 337 307 292 285 287 299 305 313 328 343 360 37 64 83 91 100 109 107 103 97 93 89
299 296 297 298 298 297 298 301 303 306 307 312 320 330 336 341 348 351 350 335 314 307 300 294 293 292 302 306 314 337 358 18 52 69 82 97 107 112 110 106 102 95 86
300 301 301 299 297 297 299 301 304 306 306 309 314 318 325 334 345 351 356 351 342 330 318 309 309 310 313 314 305 338 56 58 76 89 98 111 113 115 114 109 108 106 96
300 303 305 302 300 301 302 300 301 302 304 307 312 326 335 335 338 342 343 344 340 331 324 325 324 322 313 292 269 115 86 85 92 100 110 113 116 113 109 108 106 104 103
297 298 301 301 304 302 301 297 295 295 298 302 312 328 340 338 340 342 342 340 339 337 331 328 327 324 316 308 277 178 151 133 120 114 114 115 114 112 111 109 109 108 107
299 304 309 308 306 304 304 300 300 302 305 313 321 331 342 341 342 343 344 342 347 348 345 342 337 333 337 347 341 285 183 171 167 152 129 122 119 117 115 112 113 114 110
306 306 304 303 307 306 309 314 318 319 323 330 332 338 343 344 349 351 348 351 352 351 353 356 357 355 355 356 354 12 102 142 133 135 131 131 125 120 116 115 113 114 112
314 311 309 304 305 310 317 321 325 332 339 338 339 348 351 353 354 354 355 1 2 6 7 0 356 4 15 17 25 66 97 104 110 112 122 128 121 117 117 116 116 111 104
328 325 323 323 326 329 330 332 340 346 346 347 350 353 354 0 2 0 3 10 14 12 8 8 14 15 20 40 66 86 92 95 95 96 109 120 120 120 119 115 113 108 105
Height
1437 1437 1437 1437 1437 1436 1436 1435 1434 1433 1432 1431 1430 1428 1427 1427 1425 1424 1423 1422 1420 1419 1418 1417 1416 1416 1415 1415 1415 1415 1415 1415 1411 1409 1409 1408 1407 1406 1404 1403 1401 1400 1398
1434 1434 1433 1433 1433 1432 1431 1430 1429 1428 1427 1425 1424 1423 1422 1420 1419 1418 1416 1415 1414 1412 1411 1410 1409 1409 1409 1409 1409 1408 1408 1408 1407 1404 1403 1402 1402 1400 1399 1397 1396 1394 1393
1430 1430 1430 1429 1429 1427 1426 1425 1424 1423 1421 1420 1418 1417 1415 1414 1413 1411 1410 1409 1408 1406 1405 1404 1403 1402 1402 1402 1402 1402 1402 1402 1401 1400 1397 1397 1396 1395 1393 1392 1391 1389 1388
1427 1426 1426 1425 1424 1423 1422 1421 1419 1418 1416 1415 1413 1412 1410 1408 1407 1406 1405 1403 1401 1400 1399 1398 1397 1396 1396 1396 1396 1396 1396 1396 1395 1394 1393 1392 1391 1389 1388 1387 1385 1384 1382
1424 1423 1422 1421 1420 1419 1418 1416 1415 1413 1411 1410 1408 1406 1405 1403 1402 1400 1399 1397 1396 1394 1393 1392 1391 1391 1390 1391 1390 1390 1390 1390 1389 1389 1387 1387 1385 1384 1383 1383 1381 1379 1377
1420 1419 1419 1418 1416 1415 1414 1412 1410 1408 1407 1405 1403 1401 1399 1398 1396 1395 1394 1392 1391 1389 1388 1386 1386 1385 1385 1385 1385 1385 1385 1384 1384 1383 1382 1381 1380 1379 1379 1379 1377 1375 1373
1417 1416 1415 1414 1413 1411 1410 1408 1406 1404 1402 1400 1399 1397 1395 1393 1391 1390 1389 1388 1386 1385 1383 1382 1381 1381 1380 1380 1380 1380 1379 1379 1380 1379 1377 1376 1375 1374 1374 1373 1373 1372 1370
1414 1413 1412 1410 1409 1408 1406 1404 1402 1400 1398 1396 1394 1392 1390 1388 1387 1385 1384 1383 1381 1380 1379 1378 1377 1376 1376 1375 1375 1374 1373 1373 1373 1373 1373 1372 1371 1370 1370 1369 1369 1367 1366
1411 1410 1408 1407 1406 1404 1402 1401 1399 1397 1395 1392 1390 1388 1386 1384 1383 1381 1380 1379 1377 1376 1374 1374 1373 1372 1371 1371 1371 1369 1368 1368 1368 1368 1368 1367 1366 1365 1365 1365 1365 1364 1363
1409 1407 1406 1404 1403 1401 1399 1398 1396 1394 1391 1389 1387 1385 1383 1380 1379 1377 1376 1375 1373 1372 1371 1370 1369 1368 1367 1367 1367 1366 1365 1364 1364 1363 1363 1362 1362 1361 1361 1361 1361 1361 1361
1406 1405 1403 1402 1400 1398 1396 1395 1393 1391 1388 1386 1383 1381 1379 1377 1375 1374 1373 1372 1371 1369 1368 1367 1366 1365 1364 1363 1363 1363 1362 1362 1361 1360 1359 1359 1358 1358 1358 1358 1359 1358 1359
1404 1402 1400 1399 1397 1396 1394 1392 1390 1388 1385 1383 1380 1378 1376 1374 1372 1371 1369 1369 1368 1367 1365 1365 1364 1363 1361 1360 1360 1360 1359 1359 1358 1357 1357 1356 1356 1356 1356 1356 1357 1357 1357
1402 1400 1398 1397 1395 1393 1391 1389 1387 1385 1383 1380 1378 1375 1373 1372 1370 1368 1367 1366 1365 1364 1364 1363 1362 1361 1360 1359 1358 1357 1357 1356 1355 1355 1354 1354 1355 1355 1355 1355 1355 1356 1356
1399 1398 1396 1394 1392 1391 1389 1386 1384 1382 1380 1378 1375 1373 1371 1369 1367 1366 1365 1364 1363 1362 1362 1361 1360 1359 1358 1358 1357 1356 1355 1354 1354 1354 1353 1354 1354 1354 1353 1354 1354 1355 1355
1397 1395 1394 1392 1390 1388 1386 1384 1382 1380 1378 1376 1373 1371 1369 1367 1365 1364 1363 1362 1361 1361 1360 1359 1358 1358 1357 1356 1355 1355 1354 1353 1353 1353 1352 1352 1353 1352 1353 1353 1354 1354 1354
1395 1393 1391 1389 1387 1385 1383 1380 1379 1377 1375 1373 1371 1369 1367 1365 1363 1362 1361 1361 1360 1360 1359 1358 1357 1357 1356 1355 1355 1354 1353 1353 1352 1352 1352 1352 1352 1352 1352 1353 1354 1354 1355
1392 1390 1388 1386 1384 1382 1380 1378 1375 1373 1372 1370 1368 1366 1365 1363 1361 1360 1359 1359 1358 1358 1357 1356 1356 1356 1355 1355 1354 1353 1353 1353 1352 1352 1352 1352 1352 1352 1353 1353 1354 1355 1355
1389 1387 1385 1384 1382 1380 1378 1376 1373 1371 1368 1366 1365 1364 1362 1361 1359 1358 1358 1357 1356 1356 1355 1355 1355 1355 1354 1354 1353 1353 1352 1352 1352 1352 1352 1352 1352 1352 1353 1354 1355 1356 1356
1386 1384 1382 1381 1379 1377 1375 1373 1371 1369 1367 1365 1363 1362 1361 1359 1358 1357 1356 1356 1355 1354 1354 1354 1354 1354 1353 1353 1353 1352 1352 1352 1352 1352 1352 1352 1353 1353 1354 1354 1356 1357 1357
1383 1381 1379 1378 1376 1374 1372 1370 1369 1367 1365 1363 1362 1361 1359 1358 1356 1355 1355 1354 1354 1354 1353 1353 1353 1353 1352 1352 1352 1352 1352 1352 1352 1352 1352 1353 1353 1354 1354 1355 1356 1357 1358
1380 1378 1377 1375 1373 1371 1370 1368 1367 1365 1364 1362 1361 1360 1359 1358 1356 1355 1354 1353 1353 1353 1352 1352 1352 1352 1352 1351 1351 1351 1351 1351 1352 1352 1352 1353 1353 1354 1355 1356 1357 1358 1359
1377 1376 1374 1372 1371 1369 1368 1366 1365 1363 1362 1361 1360 1359 1358 1357 1356 1355 1354 1353 1352 1352 1352 1351 1351 1351 1351 1351 1351 1351 1351 1351 1351 1352 1352 1353 1354 1355 1356 1357 1358 1359 1360
1375 1373 1372 1370 1368 1367 1366 1364 1363 1362 1361 1360 1359 1358 1357 1356 1355 1354 1353 1353 1352 1351 1351 1351 1350 1350 1350 1350 1350 1351 1351 1351 1352 1352 1353 1354 1355 1356 1357 1358 1359 1360 1361
1373 1371 1370 1368 1367 1365 1364 1363 1362 1361 1360 1360 1359 1358 1357 1356 1355 1354 1354 1353 1352 1351 1351 1351 1350 1350 1350 1350 1350 1351 1351 1352 1352 1353 1354 1355 1356 1357 1358 1359 1360 1362 1363
1371 1369 1368 1367 1365 1364 1363 1362 1361 1360 1360 1359 1358 1358 1357 1356 1356 1355 1354 1354 1353 1352 1352 1351 1351 1351 1350 1351 1351 1351 1352 1352 1353 1354 1355 1356 1357 1358 1359 1360 1362 1363 1364
1369 1368 1367 1366 1364 1363 1362 1361 1361 1360 1359 1359 1359 1358 1357 1357 1356 1356 1355 1354 1354 1353 1352 1352 1351 1351 1351 1351 1351 1352 1352 1353 1354 1355 1355 1357 1358 1359 1360 1362 1363 1364 1365